Time,TemperatureF,DewpointF,PressureIn,WindDirection,WindDirectionDegrees,WindSpeedMPH,WindSpeedGustMPH,Humidity,HourlyPrecipIn,Conditions,Clouds,dailyrainin,SolarRadiationWatts/m^2,SoftwareType,DateUTC
2013-06-26 00:00:00,64.8,63.9,29.76,SSW,209,0.0,2.0,97,0.00,,,0.00,0.0,meteohub,2013-06-26 04:00:00,
2013-06-26 00:01:00,64.8,63.9,29.76,SSW,209,0.0,2.0,97,0.00,,,0.00,0.0,meteohub,2013-06-26 04:01:00,
2013-06-26 00:02:00,64.8,63.9,29.76,SSW,209,0.0,2.0,97,0.00,,,0.00,0.0,meteohub,2013-06-26 04:02:00,
2013-06-26 00:07:00,64.8,63.7,29.76,SSW,209,0.0,2.0,96,0.00,,,0.00,0.0,meteohub,2013-06-26 04:07:00,
2013-06-26 00:12:00,64.8,63.7,29.76,SW,232,1.0,3.0,96,0.00,,,0.00,0.0,meteohub,2013-06-26 04:12:00,
2013-06-26 00:17:00,64.8,63.7,29.76,SW,232,0.0,3.0,96,0.00,,,0.00,0.0,meteohub,2013-06-26 04:17:00,
2013-06-26 00:22:00,64.8,63.7,29.76,SW,232,0.0,3.0,96,0.00,,,0.00,0.0,meteohub,2013-06-26 04:22:00,
2013-06-26 00:27:00,64.8,63.7,29.76,SW,232,0.0,2.0,96,0.00,,,0.00,0.0,meteohub,2013-06-26 04:27:00,
2013-06-26 00:32:00,64.6,63.5,29.76,SW,232,0.0,1.0,96,0.00,,,0.00,0.0,meteohub,2013-06-26 04:32:00,
2013-06-26 00:37:00,64.6,63.5,29.77,SW,232,0.0,1.0,96,0.00,,,0.00,0.0,meteohub,2013-06-26 04:37:00,
2013-06-26 00:42:00,64.6,63.5,29.76,SW,232,1.0,2.0,96,0.00,,,0.00,0.0,meteohub,2013-06-26 04:42:00,
2013-06-26 00:47:00,64.4,63.3,29.76,SW,232,0.0,2.0,96,0.00,,,0.00,0.0,meteohub,2013-06-26 04:47:00,
2013-06-26 00:52:00,64.4,63.3,29.77,SW,232,0.0,2.0,96,0.00,,,0.00,0.0,meteohub,2013-06-26 04:52:00,
2013-06-26 00:57:00,64.4,63.5,29.76,SW,232,0.0,2.0,97,0.00,,,0.00,0.0,meteohub,2013-06-26 04:57:00,
2013-06-26 01:02:00,64.2,63.1,29.76,SW,232,1.0,2.0,96,0.00,,,0.00,0.0,meteohub,2013-06-26 05:02:00,
2013-06-26 01:08:00,64.2,63.1,29.76,SW,232,0.0,2.0,96,0.00,,,0.00,0.0,meteohub,2013-06-26 05:08:00,
2013-06-26 01:13:00,64.4,63.5,29.76,SW,232,1.0,2.0,97,0.00,,,0.00,0.0,meteohub,2013-06-26 05:13:00,
2013-06-26 01:18:00,64.2,63.3,29.76,SW,232,0.0,2.0,97,0.00,,,0.00,0.0,meteohub,2013-06-26 05:18:00,
2013-06-26 01:23:00,64.2,63.3,29.76,SW,232,0.0,2.0,97,0.00,,,0.00,0.0,meteohub,2013-06-26 05:23:00,
2013-06-26 01:28:00,64.2,63.3,29.76,SW,232,0.0,2.0,97,0.00,,,0.00,0.0,meteohub,2013-06-26 05:28:00,
2013-06-26 01:33:00,64.2,63.3,29.76,SW,232,0.0,1.0,97,0.00,,,0.00,0.0,meteohub,2013-06-26 05:33:00,
2013-06-26 01:38:00,64.2,63.3,29.76,SW,232,0.0,0.0,97,0.00,,,0.00,0.0,meteohub,2013-06-26 05:38:00,
2013-06-26 01:43:00,64.0,63.1,29.76,SW,232,0.0,0.0,97,0.00,,,0.00,0.0,meteohub,2013-06-26 05:43:00,
2013-06-26 01:48:00,63.9,63.0,29.77,SW,232,0.0,0.0,97,0.00,,,0.00,0.0,meteohub,2013-06-26 05:48:00,
2013-06-26 01:53:00,63.7,62.8,29.76,SW,232,0.0,1.0,97,0.00,,,0.00,0.0,meteohub,2013-06-26 05:53:00,
2013-06-26 01:58:00,63.5,62.6,29.76,SW,232,0.0,1.0,97,0.00,,,0.00,0.0,meteohub,2013-06-26 05:58:00,
2013-06-26 02:03:00,63.5,62.6,29.76,SW,232,0.0,1.0,97,0.00,,,0.00,0.0,meteohub,2013-06-26 06:03:00,
2013-06-26 02:08:00,63.5,62.6,29.76,SW,232,0.0,0.0,97,0.00,,,0.00,0.0,meteohub,2013-06-26 06:08:00,
2013-06-26 02:13:00,63.3,62.4,29.76,SW,232,0.0,0.0,97,0.00,,,0.00,0.0,meteohub,2013-06-26 06:13:00,
2013-06-26 02:18:00,63.3,62.4,29.76,SW,232,0.0,1.0,97,0.00,,,0.00,0.0,meteohub,2013-06-26 06:18:00,
2013-06-26 02:23:00,63.1,62.2,29.76,SW,232,0.0,1.0,97,0.00,,,0.00,0.0,meteohub,2013-06-26 06:23:00,
2013-06-26 02:28:00,63.1,62.2,29.76,SW,232,0.0,0.0,97,0.00,,,0.00,0.0,meteohub,2013-06-26 06:28:00,
2013-06-26 02:33:00,63.0,62.1,29.75,SW,232,0.0,0.0,97,0.00,,,0.00,0.0,meteohub,2013-06-26 06:33:00,
2013-06-26 02:38:00,63.0,62.4,29.75,SW,232,0.0,0.0,98,0.00,,,0.00,0.0,meteohub,2013-06-26 06:38:00,
2013-06-26 02:43:00,63.0,62.4,29.75,SW,232,0.0,1.0,98,0.00,,,0.00,0.0,meteohub,2013-06-26 06:43:00,
2013-06-26 02:48:00,62.8,61.9,29.75,SW,232,0.0,1.0,97,0.00,,,0.00,0.0,meteohub,2013-06-26 06:48:00,
2013-06-26 02:53:00,62.6,61.7,29.75,SW,232,0.0,1.0,97,0.00,,,0.00,0.0,meteohub,2013-06-26 06:53:00,
2013-06-26 02:58:00,62.4,61.5,29.75,SW,232,0.0,0.0,97,0.00,,,0.00,0.0,meteohub,2013-06-26 06:58:00,
2013-06-26 03:03:00,62.4,61.9,29.75,SW,232,0.0,0.0,98,0.00,,,0.00,0.0,meteohub,2013-06-26 07:03:00,
2013-06-26 03:08:00,62.2,61.7,29.74,SW,232,0.0,0.0,98,0.00,,,0.00,0.0,meteohub,2013-06-26 07:08:00,
2013-06-26 03:13:00,62.1,61.5,29.74,SW,232,0.0,0.0,98,0.00,,,0.00,0.0,meteohub,2013-06-26 07:13:00,
2013-06-26 03:18:00,62.1,61.2,29.75,SW,232,0.0,0.0,97,0.00,,,0.00,0.0,meteohub,2013-06-26 07:18:00,
2013-06-26 03:23:00,61.7,60.8,29.75,SW,232,0.0,0.0,97,0.00,,,0.00,0.0,meteohub,2013-06-26 07:23:00,
2013-06-26 03:29:00,61.5,60.6,29.75,SW,232,0.0,0.0,97,0.00,,,0.00,0.0,meteohub,2013-06-26 07:29:00,
2013-06-26 03:34:00,61.3,60.4,29.75,SW,232,0.0,0.0,97,0.00,,,0.00,0.0,meteohub,2013-06-26 07:34:00,
2013-06-26 03:39:00,61.3,60.4,29.75,SW,232,0.0,0.0,97,0.00,,,0.00,0.0,meteohub,2013-06-26 07:39:00,
2013-06-26 03:44:00,61.2,60.6,29.74,SW,232,0.0,0.0,98,0.00,,,0.00,0.0,meteohub,2013-06-26 07:44:00,
2013-06-26 03:49:00,61.2,60.6,29.74,SW,232,1.0,1.0,98,0.00,,,0.00,0.0,meteohub,2013-06-26 07:49:00,
2013-06-26 03:54:00,61.2,60.6,29.74,SW,232,0.0,2.0,98,0.00,,,0.00,0.0,meteohub,2013-06-26 07:54:00,
2013-06-26 03:59:00,61.2,60.6,29.74,SW,232,0.0,2.0,98,0.00,,,0.00,0.0,meteohub,2013-06-26 07:59:00,
2013-06-26 04:04:00,61.3,60.8,29.74,SW,232,0.0,2.0,98,0.00,,,0.00,0.0,meteohub,2013-06-26 08:04:00,
2013-06-26 04:09:00,61.3,60.8,29.75,SW,232,0.0,2.0,98,0.00,,,0.00,0.0,meteohub,2013-06-26 08:09:00,
2013-06-26 04:14:00,61.3,60.8,29.75,SW,232,0.0,0.0,98,0.00,,,0.00,0.0,meteohub,2013-06-26 08:14:00,
2013-06-26 04:19:00,61.3,60.8,29.75,SW,232,0.0,0.0,98,0.00,,,0.00,0.0,meteohub,2013-06-26 08:19:00,
2013-06-26 04:24:00,61.5,61.2,29.74,SW,232,1.0,0.0,99,0.00,,,0.00,0.0,meteohub,2013-06-26 08:24:00,
2013-06-26 04:29:00,61.9,61.5,29.74,SW,232,2.0,3.0,99,0.00,,,0.00,0.0,meteohub,2013-06-26 08:29:00,
2013-06-26 04:34:00,62.1,61.7,29.74,SW,232,0.0,3.0,99,0.00,,,0.00,0.0,meteohub,2013-06-26 08:34:00,
2013-06-26 04:39:00,62.2,61.9,29.74,SW,232,1.0,3.0,99,0.00,,,0.00,0.0,meteohub,2013-06-26 08:39:00,
2013-06-26 04:44:00,62.4,62.1,29.74,WSW,258,3.0,3.0,99,0.00,,,0.00,0.0,meteohub,2013-06-26 08:44:00,
2013-06-26 04:49:00,62.8,62.4,29.73,SW,235,1.0,3.0,99,0.00,,,0.00,0.0,meteohub,2013-06-26 08:49:00,
2013-06-26 04:54:00,63.0,62.6,29.73,SW,229,1.0,4.0,99,0.00,,,0.00,0.0,meteohub,2013-06-26 08:54:00,
2013-06-26 04:59:00,63.1,62.8,29.73,West,259,2.0,4.0,99,0.00,,,0.00,0.0,meteohub,2013-06-26 08:59:00,
2013-06-26 05:04:00,63.1,62.8,29.73,WSW,250,0.0,4.0,99,0.00,,,0.00,0.0,meteohub,2013-06-26 09:04:00,
2013-06-26 05:09:00,63.1,62.8,29.73,WSW,250,0.0,4.0,99,0.00,,,0.00,0.0,meteohub,2013-06-26 09:09:00,
2013-06-26 05:14:00,63.0,62.6,29.73,WSW,250,0.0,4.0,99,0.00,,,0.00,0.0,meteohub,2013-06-26 09:14:00,
2013-06-26 05:19:00,62.8,62.4,29.73,WSW,250,0.0,2.0,99,0.00,,,0.00,0.0,meteohub,2013-06-26 09:19:00,
2013-06-26 05:24:00,62.8,62.4,29.73,WSW,250,0.0,1.0,99,0.00,,,0.00,0.0,meteohub,2013-06-26 09:24:00,
2013-06-26 05:30:00,62.6,62.2,29.73,WSW,250,0.0,1.0,99,0.00,,,0.00,0.0,meteohub,2013-06-26 09:30:00,
2013-06-26 05:35:00,62.4,62.1,29.73,WSW,250,0.0,1.0,99,0.00,,,0.00,0.0,meteohub,2013-06-26 09:35:00,
2013-06-26 05:40:00,62.1,61.5,29.73,WSW,250,0.0,1.0,98,0.00,,,0.00,0.0,meteohub,2013-06-26 09:40:00,
2013-06-26 05:45:00,61.9,61.3,29.73,WSW,250,0.0,1.0,98,0.00,,,0.00,0.0,meteohub,2013-06-26 09:45:00,
2013-06-26 05:50:00,61.7,61.3,29.74,WSW,237,1.0,1.0,99,0.00,,,0.00,0.0,meteohub,2013-06-26 09:50:00,
2013-06-26 05:55:00,61.5,61.2,29.74,WSW,237,0.0,2.0,99,0.00,,,0.00,5.0,meteohub,2013-06-26 09:55:00,
2013-06-26 06:00:00,61.5,61.0,29.74,WSW,237,0.0,3.0,98,0.00,,,0.00,9.0,meteohub,2013-06-26 10:00:00,
2013-06-26 06:05:00,61.5,61.2,29.75,WSW,237,0.0,3.0,99,0.00,,,0.00,12.0,meteohub,2013-06-26 10:05:00,
2013-06-26 06:10:00,61.3,61.0,29.74,WSW,237,0.0,2.0,99,0.00,,,0.00,18.0,meteohub,2013-06-26 10:10:00,
2013-06-26 06:15:00,61.5,61.2,29.75,WSW,237,0.0,1.0,99,0.00,,,0.00,23.0,meteohub,2013-06-26 10:15:00,
2013-06-26 06:20:00,61.5,61.2,29.75,WSW,237,0.0,1.0,99,0.00,,,0.00,32.0,meteohub,2013-06-26 10:20:00,
2013-06-26 06:25:00,61.7,61.3,29.75,WSW,237,0.0,0.0,99,0.00,,,0.00,40.0,meteohub,2013-06-26 10:25:00,
2013-06-26 06:30:00,62.1,61.7,29.75,WSW,237,0.0,0.0,99,0.00,,,0.00,49.0,meteohub,2013-06-26 10:30:00,
2013-06-26 06:35:00,62.4,62.1,29.75,WSW,237,0.0,0.0,99,0.00,,,0.00,60.0,meteohub,2013-06-26 10:35:00,
2013-06-26 06:40:00,63.0,62.6,29.75,WSW,237,0.0,0.0,99,0.00,,,0.00,70.0,meteohub,2013-06-26 10:40:00,
2013-06-26 06:45:00,63.3,63.0,29.75,WSW,237,0.0,0.0,99,0.00,,,0.00,83.0,meteohub,2013-06-26 10:45:00,
2013-06-26 06:50:00,63.3,62.8,29.75,WSW,237,0.0,1.0,98,0.00,,,0.00,95.0,meteohub,2013-06-26 10:50:00,
2013-06-26 06:55:00,63.3,62.4,29.75,WSW,237,0.0,1.0,97,0.00,,,0.00,109.0,meteohub,2013-06-26 10:55:00,
2013-06-26 07:00:00,63.7,62.6,29.75,WSW,237,0.0,1.0,96,0.00,,,0.00,123.0,meteohub,2013-06-26 11:00:00,
2013-06-26 07:06:00,64.0,63.0,29.75,WSW,237,1.0,1.0,96,0.00,,,0.00,139.0,meteohub,2013-06-26 11:06:00,
2013-06-26 07:11:00,64.4,63.0,29.75,WSW,237,0.0,1.0,95,0.00,,,0.00,151.0,meteohub,2013-06-26 11:11:00,
2013-06-26 07:16:00,64.6,62.8,29.75,WSW,237,0.0,1.0,94,0.00,,,0.00,163.0,meteohub,2013-06-26 11:16:00,
2013-06-26 07:21:00,64.6,62.8,29.76,WSW,237,1.0,1.0,94,0.00,,,0.00,176.0,meteohub,2013-06-26 11:21:00,
2013-06-26 07:26:00,64.8,63.3,29.75,WSW,237,2.0,2.0,95,0.00,,,0.00,190.0,meteohub,2013-06-26 11:26:00,
2013-06-26 07:31:00,64.9,63.5,29.75,WSW,237,0.0,2.0,95,0.00,,,0.00,202.0,meteohub,2013-06-26 11:31:00,
2013-06-26 07:36:00,66.0,64.2,29.75,WSW,237,0.0,2.0,94,0.00,,,0.00,216.0,meteohub,2013-06-26 11:36:00,
2013-06-26 07:41:00,67.3,64.9,29.75,WSW,237,0.0,2.0,92,0.00,,,0.00,230.0,meteohub,2013-06-26 11:41:00,
2013-06-26 07:46:00,68.4,65.3,29.75,WSW,237,0.0,1.0,90,0.00,,,0.00,244.0,meteohub,2013-06-26 11:46:00,
2013-06-26 07:51:00,68.5,64.8,29.75,WSW,237,0.0,1.0,88,0.00,,,0.00,258.0,meteohub,2013-06-26 11:51:00,
2013-06-26 07:56:00,68.7,64.9,29.75,WSW,237,0.0,2.0,88,0.00,,,0.00,274.0,meteohub,2013-06-26 11:56:00,
2013-06-26 08:01:00,69.1,64.8,29.75,WSW,237,2.0,2.0,86,0.00,,,0.00,292.0,meteohub,2013-06-26 12:01:00,
2013-06-26 08:06:00,68.9,65.5,29.75,WSW,237,1.0,3.0,89,0.00,,,0.00,308.0,meteohub,2013-06-26 12:06:00,
2013-06-26 08:11:00,68.9,65.5,29.76,WSW,237,2.0,3.0,89,0.00,,,0.00,322.0,meteohub,2013-06-26 12:11:00,
2013-06-26 08:16:00,69.1,65.3,29.76,WSW,237,0.0,3.0,88,0.00,,,0.00,334.0,meteohub,2013-06-26 12:16:00,
2013-06-26 08:21:00,69.3,65.5,29.76,WSW,237,1.0,3.0,88,0.00,,,0.00,352.0,meteohub,2013-06-26 12:21:00,
2013-06-26 08:26:00,69.3,65.5,29.76,SSW,197,1.0,3.0,88,0.00,,,0.00,366.0,meteohub,2013-06-26 12:26:00,
2013-06-26 08:31:00,69.4,65.7,29.76,SSW,197,1.0,3.0,88,0.00,,,0.00,380.0,meteohub,2013-06-26 12:31:00,
2013-06-26 08:36:00,69.8,66.0,29.77,SSW,207,1.0,3.0,88,0.00,,,0.00,396.0,meteohub,2013-06-26 12:36:00,
2013-06-26 08:41:00,70.0,66.2,29.77,SW,234,2.0,3.0,88,0.00,,,0.00,411.0,meteohub,2013-06-26 12:41:00,
2013-06-26 08:46:00,69.8,65.8,29.77,SW,225,2.0,5.0,87,0.00,,,0.00,427.0,meteohub,2013-06-26 12:46:00,
2013-06-26 08:51:00,70.2,66.7,29.77,SW,215,2.0,5.0,89,0.00,,,0.00,441.0,meteohub,2013-06-26 12:51:00,
2013-06-26 08:56:00,70.5,66.7,29.77,SW,227,0.0,5.0,88,0.00,,,0.00,454.0,meteohub,2013-06-26 12:56:00,
2013-06-26 09:01:00,71.1,66.7,29.77,SSW,201,2.0,4.0,86,0.00,,,0.00,468.0,meteohub,2013-06-26 13:01:00,
2013-06-26 09:06:00,71.2,66.9,29.77,SSW,207,0.0,4.0,86,0.00,,,0.00,483.0,meteohub,2013-06-26 13:06:00,
2013-06-26 09:11:00,71.4,67.1,29.77,SW,219,1.0,4.0,86,0.00,,,0.00,497.0,meteohub,2013-06-26 13:11:00,
2013-06-26 09:16:00,71.8,67.1,29.77,SSW,205,3.0,4.0,85,0.00,,,0.00,513.0,meteohub,2013-06-26 13:16:00,
2013-06-26 09:22:00,72.1,67.1,29.77,SSW,205,0.0,5.0,84,0.00,,,0.00,526.0,meteohub,2013-06-26 13:22:00,
2013-06-26 09:27:00,72.7,67.6,29.77,SSW,202,2.0,5.0,84,0.00,,,0.00,543.0,meteohub,2013-06-26 13:27:00,
2013-06-26 09:32:00,73.0,68.0,29.77,SW,220,2.0,5.0,84,0.00,,,0.00,536.0,meteohub,2013-06-26 13:32:00,
2013-06-26 09:37:00,73.8,68.4,29.77,SW,228,0.0,4.0,83,0.00,,,0.00,454.0,meteohub,2013-06-26 13:37:00,
2013-06-26 09:42:00,73.8,68.4,29.77,SW,227,1.0,4.0,83,0.00,,,0.00,564.0,meteohub,2013-06-26 13:42:00,
2013-06-26 09:47:00,73.2,67.5,29.76,SSW,205,3.0,5.0,82,0.00,,,0.00,613.0,meteohub,2013-06-26 13:47:00,
2013-06-26 09:52:00,73.8,68.4,29.76,SW,235,3.0,5.0,83,0.00,,,0.00,621.0,meteohub,2013-06-26 13:52:00,
2013-06-26 09:57:00,73.8,68.4,29.76,SW,225,3.0,5.0,83,0.00,,,0.00,631.0,meteohub,2013-06-26 13:57:00,
2013-06-26 10:02:00,74.3,68.0,29.76,SSW,204,3.0,5.0,81,0.00,,,0.00,642.0,meteohub,2013-06-26 14:02:00,
2013-06-26 10:07:00,74.7,67.6,29.76,SW,216,1.0,5.0,79,0.00,,,0.00,638.0,meteohub,2013-06-26 14:07:00,
2013-06-26 10:12:00,75.6,68.2,29.75,WSW,254,0.0,5.0,78,0.00,,,0.00,666.0,meteohub,2013-06-26 14:12:00,
2013-06-26 10:17:00,75.9,68.2,29.75,SW,229,3.0,5.0,77,0.00,,,0.00,680.0,meteohub,2013-06-26 14:17:00,
2013-06-26 10:22:00,75.4,68.4,29.75,SW,233,1.0,5.0,79,0.00,,,0.00,671.0,meteohub,2013-06-26 14:22:00,
2013-06-26 10:27:00,76.3,68.9,29.75,SW,233,0.0,5.0,78,0.00,,,0.00,649.0,meteohub,2013-06-26 14:27:00,
2013-06-26 10:32:00,75.6,67.5,29.76,SW,226,1.0,5.0,76,0.00,,,0.00,710.0,meteohub,2013-06-26 14:32:00,
2013-06-26 10:37:00,75.9,67.8,29.75,SSW,207,1.0,5.0,76,0.00,,,0.00,724.0,meteohub,2013-06-26 14:37:00,
2013-06-26 10:42:00,77.4,68.4,29.76,South,187,4.0,5.0,74,0.00,,,0.00,740.0,meteohub,2013-06-26 14:42:00,
2013-06-26 10:47:00,77.2,69.4,29.76,WSW,242,1.0,6.0,77,0.00,,,0.00,749.0,meteohub,2013-06-26 14:47:00,
2013-06-26 10:52:00,77.7,68.7,29.76,SSW,200,2.0,6.0,74,0.00,,,0.00,761.0,meteohub,2013-06-26 14:52:00,
2013-06-26 10:57:00,77.5,68.5,29.76,SW,214,1.0,6.0,74,0.00,,,0.00,772.0,meteohub,2013-06-26 14:57:00,
2013-06-26 11:02:00,78.1,69.1,29.76,SW,217,4.0,7.0,74,0.00,,,0.00,782.0,meteohub,2013-06-26 15:02:00,
2013-06-26 11:07:00,77.4,68.4,29.76,SW,219,3.0,7.0,74,0.00,,,0.00,793.0,meteohub,2013-06-26 15:07:00,
2013-06-26 11:12:00,76.5,68.0,29.76,SSW,212,4.0,7.0,75,0.00,,,0.00,803.0,meteohub,2013-06-26 15:12:00,
2013-06-26 11:17:00,77.5,67.8,29.76,SW,215,2.0,7.0,72,0.00,,,0.00,812.0,meteohub,2013-06-26 15:17:00,
2013-06-26 11:22:00,78.3,68.0,29.75,South,188,2.0,7.0,71,0.00,,,0.00,823.0,meteohub,2013-06-26 15:22:00,
2013-06-26 11:27:00,77.9,68.2,29.76,SW,229,4.0,7.0,72,0.00,,,0.00,831.0,meteohub,2013-06-26 15:27:00,
2013-06-26 11:32:00,77.9,68.5,29.76,SSW,196,3.0,7.0,73,0.00,,,0.00,840.0,meteohub,2013-06-26 15:32:00,
2013-06-26 11:37:00,78.3,68.0,29.76,SW,226,2.0,7.0,71,0.00,,,0.00,851.0,meteohub,2013-06-26 15:37:00,
2013-06-26 11:42:00,80.6,68.5,29.75,SW,224,1.0,5.0,67,0.00,,,0.00,856.0,meteohub,2013-06-26 15:42:00,
2013-06-26 11:47:00,79.9,67.1,29.76,West,273,1.0,5.0,65,0.00,,,0.00,856.0,meteohub,2013-06-26 15:47:00,
2013-06-26 11:52:00,79.0,67.5,29.76,SW,222,1.0,5.0,68,0.00,,,0.00,868.0,meteohub,2013-06-26 15:52:00,
2013-06-26 11:57:00,79.2,65.8,29.75,East,81,2.0,6.0,64,0.00,,,0.00,867.0,meteohub,2013-06-26 15:57:00,
2013-06-26 12:02:00,80.2,65.1,29.75,SSE,155,2.0,6.0,60,0.00,,,0.00,874.0,meteohub,2013-06-26 16:02:00,
2013-06-26 12:07:00,80.8,66.0,29.75,SSW,205,5.0,6.0,61,0.00,,,0.00,889.0,meteohub,2013-06-26 16:07:00,
2013-06-26 12:12:00,81.3,65.7,29.75,North,355,0.0,6.0,59,0.00,,,0.00,796.0,meteohub,2013-06-26 16:12:00,
2013-06-26 12:17:00,82.9,67.1,29.75,SSW,211,0.0,6.0,59,0.00,,,0.00,893.0,meteohub,2013-06-26 16:17:00,
2013-06-26 12:22:00,82.4,66.6,29.75,SSW,200,3.0,6.0,59,0.00,,,0.00,911.0,meteohub,2013-06-26 16:22:00,
2013-06-26 12:27:00,82.8,66.6,29.75,SSW,193,3.0,4.0,58,0.00,,,0.00,905.0,meteohub,2013-06-26 16:27:00,
2013-06-26 12:32:00,82.4,64.6,29.75,SE,128,1.0,4.0,55,0.00,,,0.00,912.0,meteohub,2013-06-26 16:32:00,
2013-06-26 12:38:00,82.8,64.9,29.75,South,175,1.0,5.0,55,0.00,,,0.00,916.0,meteohub,2013-06-26 16:38:00,
2013-06-26 12:43:00,83.7,66.4,29.75,SSE,166,1.0,5.0,56,0.00,,,0.00,928.0,meteohub,2013-06-26 16:43:00,
2013-06-26 12:48:00,84.0,65.1,29.75,East,84,3.0,5.0,53,0.00,,,0.00,933.0,meteohub,2013-06-26 16:48:00,
2013-06-26 12:53:00,83.8,65.5,29.75,ENE,61,1.0,5.0,54,0.00,,,0.00,942.0,meteohub,2013-06-26 16:53:00,
2013-06-26 12:58:00,84.2,65.3,29.74,SSE,165,3.0,5.0,53,0.00,,,0.00,954.0,meteohub,2013-06-26 16:58:00,
2013-06-26 13:03:00,83.5,64.0,29.74,West,263,1.0,5.0,52,0.00,,,0.00,963.0,meteohub,2013-06-26 17:03:00,
2013-06-26 13:08:00,83.3,63.9,29.74,East,91,2.0,5.0,52,0.00,,,0.00,953.0,meteohub,2013-06-26 17:08:00,
2013-06-26 13:13:00,83.7,61.3,29.74,East,83,1.0,6.0,47,0.00,,,0.00,942.0,meteohub,2013-06-26 17:13:00,
2013-06-26 13:18:00,82.6,61.5,29.74,ENE,69,2.0,6.0,49,0.00,,,0.00,954.0,meteohub,2013-06-26 17:18:00,
2013-06-26 13:23:00,83.1,63.7,29.74,SE,126,2.0,6.0,52,0.00,,,0.00,958.0,meteohub,2013-06-26 17:23:00,
2013-06-26 13:28:00,84.4,62.6,29.74,East,82,3.0,5.0,48,0.00,,,0.00,963.0,meteohub,2013-06-26 17:28:00,
2013-06-26 13:33:00,84.6,66.0,29.73,East,82,5.0,5.0,54,0.00,,,0.00,951.0,meteohub,2013-06-26 17:33:00,
2013-06-26 13:38:00,84.0,64.6,29.73,North,355,1.0,6.0,52,0.00,,,0.00,953.0,meteohub,2013-06-26 17:38:00,
2013-06-26 13:43:00,83.8,68.5,29.73,East,92,2.0,6.0,60,0.00,,,0.00,962.0,meteohub,2013-06-26 17:43:00,
2013-06-26 13:48:00,82.9,68.2,29.73,NE,46,4.0,6.0,61,0.00,,,0.00,972.0,meteohub,2013-06-26 17:48:00,
2013-06-26 13:53:00,82.8,68.4,29.73,North,5,0.0,7.0,62,0.00,,,0.00,967.0,meteohub,2013-06-26 17:53:00,
2013-06-26 13:58:00,82.8,69.3,29.73,NE,53,3.0,7.0,64,0.00,,,0.00,960.0,meteohub,2013-06-26 17:58:00,
2013-06-26 14:03:00,83.7,68.7,29.73,NE,44,3.0,7.0,61,0.00,,,0.00,960.0,meteohub,2013-06-26 18:03:00,
2013-06-26 14:08:00,83.5,67.6,29.73,ESE,123,2.0,7.0,59,0.00,,,0.00,960.0,meteohub,2013-06-26 18:08:00,
2013-06-26 14:13:00,83.8,68.0,29.73,East,85,5.0,7.0,59,0.00,,,0.00,953.0,meteohub,2013-06-26 18:13:00,
2013-06-26 14:18:00,82.9,67.1,29.73,East,88,2.0,7.0,59,0.00,,,0.00,940.0,meteohub,2013-06-26 18:18:00,
2013-06-26 14:23:00,84.0,68.2,29.73,WNW,301,0.0,8.0,59,0.00,,,0.00,939.0,meteohub,2013-06-26 18:23:00,
2013-06-26 14:28:00,84.7,68.9,29.73,NNE,32,2.0,8.0,59,0.00,,,0.00,937.0,meteohub,2013-06-26 18:28:00,
2013-06-26 14:33:00,84.0,68.7,29.73,East,86,7.0,7.0,60,0.00,,,0.00,923.0,meteohub,2013-06-26 18:33:00,
2013-06-26 14:38:00,83.1,69.3,29.73,NNW,331,0.0,7.0,63,0.00,,,0.00,916.0,meteohub,2013-06-26 18:38:00,
2013-06-26 14:44:00,83.5,69.6,29.73,SW,223,1.0,7.0,63,0.00,,,0.00,904.0,meteohub,2013-06-26 18:44:00,
2013-06-26 14:49:00,83.8,69.4,29.73,ENE,72,4.0,7.0,62,0.00,,,0.00,881.0,meteohub,2013-06-26 18:49:00,
2013-06-26 14:54:00,84.6,71.4,29.72,ENE,76,4.0,7.0,65,0.00,,,0.00,896.0,meteohub,2013-06-26 18:54:00,
2013-06-26 14:59:00,83.8,68.0,29.72,ENE,64,5.0,7.0,59,0.00,,,0.00,909.0,meteohub,2013-06-26 18:59:00,
2013-06-26 15:04:00,82.8,68.0,29.72,ENE,72,4.0,8.0,61,0.00,,,0.00,907.0,meteohub,2013-06-26 19:04:00,
2013-06-26 15:09:00,83.7,68.4,29.72,East,88,3.0,8.0,60,0.00,,,0.00,886.0,meteohub,2013-06-26 19:09:00,
2013-06-26 15:14:00,84.4,68.0,29.71,East,90,1.0,9.0,58,0.00,,,0.00,882.0,meteohub,2013-06-26 19:14:00,
2013-06-26 15:19:00,84.9,70.0,29.71,East,83,6.0,9.0,61,0.00,,,0.00,881.0,meteohub,2013-06-26 19:19:00,
2013-06-26 15:24:00,84.9,68.5,29.71,ENE,72,2.0,5.0,58,0.00,,,0.00,877.0,meteohub,2013-06-26 19:24:00,
2013-06-26 15:29:00,84.4,68.9,29.71,NNE,28,1.0,7.0,60,0.00,,,0.00,886.0,meteohub,2013-06-26 19:29:00,
2013-06-26 15:34:00,84.9,69.4,29.71,NNE,31,7.0,7.0,60,0.00,,,0.00,874.0,meteohub,2013-06-26 19:34:00,
2013-06-26 15:39:00,84.4,69.4,29.71,North,355,2.0,7.0,61,0.00,,,0.00,796.0,meteohub,2013-06-26 19:39:00,
2013-06-26 15:44:00,84.7,69.3,29.71,NE,51,5.0,8.0,60,0.00,,,0.00,710.0,meteohub,2013-06-26 19:44:00,
2013-06-26 15:49:00,84.4,69.4,29.70,NE,54,7.0,8.0,61,0.00,,,0.00,861.0,meteohub,2013-06-26 19:49:00,
2013-06-26 15:54:00,83.7,68.7,29.70,ENE,67,5.0,8.0,61,0.00,,,0.00,645.0,meteohub,2013-06-26 19:54:00,
2013-06-26 15:59:00,83.7,68.7,29.70,East,90,5.0,9.0,61,0.00,,,0.00,759.0,meteohub,2013-06-26 19:59:00,
2013-06-26 16:04:00,83.8,69.4,29.70,NNE,30,6.0,9.0,62,0.00,,,0.00,696.0,meteohub,2013-06-26 20:04:00,
2013-06-26 16:09:00,83.8,70.3,29.70,East,87,6.0,9.0,64,0.00,,,0.00,533.0,meteohub,2013-06-26 20:09:00,
2013-06-26 16:14:00,83.3,68.4,29.70,NE,51,5.0,10.0,61,0.00,,,0.00,485.0,meteohub,2013-06-26 20:14:00,
2013-06-26 16:19:00,82.9,69.1,29.70,NNE,32,7.0,10.0,63,0.00,,,0.00,670.0,meteohub,2013-06-26 20:19:00,
2013-06-26 16:24:00,82.8,69.3,29.69,ENE,67,4.0,10.0,64,0.00,,,0.00,659.0,meteohub,2013-06-26 20:24:00,
2013-06-26 16:29:00,82.6,69.1,29.69,East,87,6.0,11.0,64,0.00,,,0.00,664.0,meteohub,2013-06-26 20:29:00,
2013-06-26 16:34:00,82.6,69.1,29.69,East,101,7.0,11.0,64,0.00,,,0.00,698.0,meteohub,2013-06-26 20:34:00,
2013-06-26 16:39:00,82.6,69.1,29.70,East,80,7.0,11.0,64,0.00,,,0.00,679.0,meteohub,2013-06-26 20:39:00,
2013-06-26 16:44:00,82.2,68.4,29.69,ENE,61,4.0,10.0,63,0.00,,,0.00,501.0,meteohub,2013-06-26 20:44:00,
2013-06-26 16:49:00,82.0,68.2,29.70,East,84,7.0,9.0,63,0.00,,,0.00,548.0,meteohub,2013-06-26 20:49:00,
2013-06-26 16:54:00,82.0,69.1,29.70,ENE,71,4.0,9.0,65,0.00,,,0.00,589.0,meteohub,2013-06-26 20:54:00,
2013-06-26 16:59:00,82.6,69.1,29.70,ENE,65,3.0,10.0,64,0.00,,,0.00,207.0,meteohub,2013-06-26 20:59:00,
2013-06-26 17:04:00,82.2,68.4,29.70,East,88,9.0,11.0,63,0.00,,,0.00,193.0,meteohub,2013-06-26 21:04:00,
2013-06-26 17:09:00,81.9,67.6,29.70,ENE,76,9.0,11.0,62,0.00,,,0.00,213.0,meteohub,2013-06-26 21:09:00,
2013-06-26 17:14:00,81.7,67.5,29.70,ENE,63,7.0,12.0,62,0.00,,,0.00,176.0,meteohub,2013-06-26 21:14:00,
2013-06-26 17:20:00,81.1,66.4,29.70,ENE,65,4.0,12.0,61,0.00,,,0.00,204.0,meteohub,2013-06-26 21:20:00,
2013-06-26 17:25:00,81.1,68.2,29.70,ENE,71,4.0,12.0,65,0.00,,,0.00,234.0,meteohub,2013-06-26 21:25:00,
2013-06-26 17:30:00,81.3,67.5,29.70,East,83,3.0,10.0,63,0.00,,,0.00,165.0,meteohub,2013-06-26 21:30:00,
2013-06-26 17:35:00,81.5,67.6,29.70,ENE,59,4.0,10.0,63,0.00,,,0.00,179.0,meteohub,2013-06-26 21:35:00,
2013-06-26 17:40:00,81.7,67.5,29.70,ESE,104,7.0,7.0,62,0.00,,,0.00,181.0,meteohub,2013-06-26 21:40:00,
2013-06-26 17:45:00,81.5,67.6,29.70,NNE,28,3.0,6.0,63,0.00,,,0.00,195.0,meteohub,2013-06-26 21:45:00,
2013-06-26 17:50:00,81.1,67.8,29.70,ENE,76,3.0,8.0,64,0.00,,,0.00,200.0,meteohub,2013-06-26 21:50:00,
2013-06-26 17:55:00,80.8,66.9,29.70,ENE,71,5.0,9.0,63,0.00,,,0.00,197.0,meteohub,2013-06-26 21:55:00,
2013-06-26 18:00:00,80.4,66.7,29.70,East,101,7.0,9.0,63,0.00,,,0.00,197.0,meteohub,2013-06-26 22:00:00,
2013-06-26 18:05:00,80.2,67.5,29.70,East,87,6.0,9.0,65,0.00,,,0.00,200.0,meteohub,2013-06-26 22:05:00,
2013-06-26 18:10:00,80.1,67.3,29.70,ENE,67,2.0,8.0,65,0.00,,,0.00,213.0,meteohub,2013-06-26 22:10:00,
2013-06-26 18:15:00,79.9,66.2,29.70,NE,52,1.0,8.0,63,0.00,,,0.00,218.0,meteohub,2013-06-26 22:15:00,
2013-06-26 18:20:00,79.9,66.6,29.70,ENE,60,5.0,6.0,64,0.00,,,0.00,197.0,meteohub,2013-06-26 22:20:00,
2013-06-26 18:25:00,79.5,65.8,29.70,ENE,69,1.0,6.0,63,0.00,,,0.00,176.0,meteohub,2013-06-26 22:25:00,
2013-06-26 18:30:00,79.3,66.0,29.69,East,90,2.0,9.0,64,0.00,,,0.00,176.0,meteohub,2013-06-26 22:30:00,
2013-06-26 18:35:00,79.3,66.6,29.69,ENE,62,2.0,9.0,65,0.00,,,0.00,165.0,meteohub,2013-06-26 22:35:00,
2013-06-26 18:40:00,79.3,65.1,29.69,NE,39,5.0,9.0,62,0.00,,,0.00,144.0,meteohub,2013-06-26 22:40:00,
2013-06-26 18:45:00,79.2,64.6,29.69,East,88,5.0,9.0,61,0.00,,,0.00,123.0,meteohub,2013-06-26 22:45:00,
2013-06-26 18:50:00,79.0,63.9,29.69,ENE,60,8.0,10.0,60,0.00,,,0.00,98.0,meteohub,2013-06-26 22:50:00,
2013-06-26 18:55:00,78.6,64.6,29.69,ENE,60,4.0,10.0,62,0.00,,,0.00,65.0,meteohub,2013-06-26 22:55:00,
2013-06-26 19:00:00,78.3,63.3,29.69,ESE,103,4.0,10.0,60,0.00,,,0.00,56.0,meteohub,2013-06-26 23:00:00,
2013-06-26 19:05:00,78.1,62.6,29.69,East,94,8.0,9.0,59,0.00,,,0.00,70.0,meteohub,2013-06-26 23:05:00,
2013-06-26 19:10:00,78.1,62.6,29.69,ENE,63,5.0,9.0,59,0.00,,,0.00,74.0,meteohub,2013-06-26 23:10:00,
2013-06-26 19:15:00,77.7,62.8,29.69,East,82,6.0,9.0,60,0.00,,,0.00,98.0,meteohub,2013-06-26 23:15:00,
2013-06-26 19:20:00,77.7,62.2,29.69,NE,51,4.0,9.0,59,0.00,,,0.00,114.0,meteohub,2013-06-26 23:20:00,
2013-06-26 19:25:00,77.9,63.0,29.69,SE,127,3.0,9.0,60,0.00,,,0.00,123.0,meteohub,2013-06-26 23:25:00,
2013-06-26 19:30:00,77.9,63.0,29.69,NE,54,2.0,8.0,60,0.00,,,0.00,130.0,meteohub,2013-06-26 23:30:00,
2013-06-26 19:35:00,77.9,63.3,29.69,ENE,61,5.0,8.0,61,0.00,,,0.00,132.0,meteohub,2013-06-26 23:35:00,
2013-06-26 19:40:00,78.1,63.5,29.68,ENE,72,4.0,9.0,61,0.00,,,0.00,120.0,meteohub,2013-06-26 23:40:00,
2013-06-26 19:45:00,78.1,63.5,29.69,ENE,59,3.0,9.0,61,0.00,,,0.00,91.0,meteohub,2013-06-26 23:45:00,
2013-06-26 19:50:00,78.1,63.5,29.69,East,81,2.0,8.0,61,0.00,,,0.00,70.0,meteohub,2013-06-26 23:50:00,
2013-06-26 19:55:00,78.1,64.0,29.69,ENE,61,2.0,8.0,62,0.00,,,0.00,70.0,meteohub,2013-06-26 23:55:00,
2013-06-26 20:00:00,77.7,64.0,29.69,East,90,2.0,8.0,63,0.00,,,0.00,62.0,meteohub,2013-06-27 00:00:00,
2013-06-26 20:05:00,77.7,64.6,29.68,ENE,74,2.0,8.0,64,0.00,,,0.00,49.0,meteohub,2013-06-27 00:05:00,
2013-06-26 20:10:00,77.5,65.3,29.68,ENE,61,1.0,7.0,66,0.00,,,0.00,37.0,meteohub,2013-06-27 00:10:00,
2013-06-26 20:15:00,77.5,64.8,29.68,NE,46,2.0,6.0,65,0.00,,,0.00,25.0,meteohub,2013-06-27 00:15:00,
2013-06-26 20:20:00,77.2,65.3,29.68,NE,47,2.0,5.0,67,0.00,,,0.00,21.0,meteohub,2013-06-27 00:20:00,
2013-06-26 20:25:00,76.8,65.5,29.67,ENE,57,1.0,5.0,68,0.00,,,0.00,18.0,meteohub,2013-06-27 00:25:00,
2013-06-26 20:30:00,76.5,65.5,29.67,NNE,29,0.0,5.0,69,0.00,,,0.00,18.0,meteohub,2013-06-27 00:30:00,
2013-06-26 20:35:00,76.3,65.8,29.67,ESE,111,1.0,4.0,70,0.00,,,0.00,19.0,meteohub,2013-06-27 00:35:00,
2013-06-26 20:40:00,75.9,65.8,29.67,ENE,62,0.0,4.0,71,0.00,,,0.00,18.0,meteohub,2013-06-27 00:40:00,
2013-06-26 20:45:00,75.7,65.7,29.68,ESE,111,0.0,3.0,71,0.00,,,0.00,16.0,meteohub,2013-06-27 00:45:00,
2013-06-26 20:50:00,75.6,65.8,29.68,East,99,0.0,3.0,72,0.00,,,0.00,12.0,meteohub,2013-06-27 00:50:00,
2013-06-26 20:55:00,75.4,66.2,29.68,East,93,1.0,3.0,73,0.00,,,0.00,11.0,meteohub,2013-06-27 00:55:00,
2013-06-26 21:01:00,75.0,66.2,29.67,ENE,73,2.0,3.0,74,0.00,,,0.00,9.0,meteohub,2013-06-27 01:01:00,
2013-06-26 21:06:00,74.5,66.0,29.67,ENE,65,1.0,5.0,75,0.00,,,0.00,5.0,meteohub,2013-06-27 01:06:00,
2013-06-26 21:11:00,74.3,66.2,29.67,East,92,1.0,5.0,76,0.00,,,0.00,5.0,meteohub,2013-06-27 01:11:00,
2013-06-26 21:16:00,74.1,66.0,29.68,East,96,1.0,6.0,76,0.00,,,0.00,0.0,meteohub,2013-06-27 01:16:00,
2013-06-26 21:21:00,73.9,65.8,29.68,SE,138,0.0,6.0,76,0.00,,,0.00,0.0,meteohub,2013-06-27 01:21:00,
2013-06-26 21:26:00,73.9,65.8,29.68,ENE,74,0.0,5.0,76,0.00,,,0.00,0.0,meteohub,2013-06-27 01:26:00,
2013-06-26 21:31:00,73.8,66.0,29.68,East,96,0.0,5.0,77,0.00,,,0.00,0.0,meteohub,2013-06-27 01:31:00,
2013-06-26 21:36:00,73.6,66.4,29.68,East,96,0.0,5.0,78,0.00,,,0.00,0.0,meteohub,2013-06-27 01:36:00,
2013-06-26 21:41:00,73.4,66.2,29.69,East,96,0.0,2.0,78,0.00,,,0.00,0.0,meteohub,2013-06-27 01:41:00,
2013-06-26 21:46:00,73.2,66.0,29.69,SE,130,1.0,1.0,78,0.00,,,0.00,0.0,meteohub,2013-06-27 01:46:00,
2013-06-26 21:51:00,72.9,66.0,29.69,SE,130,0.0,2.0,79,0.00,,,0.00,0.0,meteohub,2013-06-27 01:51:00,
2013-06-26 21:56:00,72.7,66.2,29.70,SE,141,0.0,2.0,80,0.00,,,0.00,0.0,meteohub,2013-06-27 01:56:00,
2013-06-26 22:01:00,72.5,66.0,29.69,East,84,0.0,2.0,80,0.00,,,0.00,0.0,meteohub,2013-06-27 02:01:00,
2013-06-26 22:06:00,72.3,65.8,29.69,ESE,112,1.0,2.0,80,0.00,,,0.00,0.0,meteohub,2013-06-27 02:06:00,
2013-06-26 22:11:00,72.1,66.0,29.70,ESE,113,1.0,2.0,81,0.00,,,0.00,0.0,meteohub,2013-06-27 02:11:00,
2013-06-26 22:16:00,72.1,66.0,29.70,SE,134,0.0,2.0,81,0.00,,,0.00,0.0,meteohub,2013-06-27 02:16:00,
2013-06-26 22:21:00,72.1,66.4,29.70,SE,143,0.0,2.0,82,0.00,,,0.00,0.0,meteohub,2013-06-27 02:21:00,
2013-06-26 22:26:00,72.1,66.4,29.70,South,185,1.0,2.0,82,0.00,,,0.00,0.0,meteohub,2013-06-27 02:26:00,
2013-06-26 22:31:00,72.3,66.6,29.70,SSW,203,1.0,2.0,82,0.00,,,0.00,0.0,meteohub,2013-06-27 02:31:00,
2013-06-26 22:36:00,72.3,66.6,29.70,SW,227,1.0,2.0,82,0.00,,,0.00,0.0,meteohub,2013-06-27 02:36:00,
2013-06-26 22:41:00,72.3,66.6,29.70,SW,234,1.0,3.0,82,0.00,,,0.00,0.0,meteohub,2013-06-27 02:41:00,
2013-06-26 22:46:00,72.5,66.4,29.71,South,183,3.0,3.0,81,0.00,,,0.00,0.0,meteohub,2013-06-27 02:46:00,
2013-06-26 22:51:00,73.0,67.3,29.71,SW,221,7.0,11.0,82,0.00,,,0.00,0.0,meteohub,2013-06-27 02:51:00,
2013-06-26 22:56:00,72.7,66.9,29.71,SW,227,7.0,11.0,82,0.00,,,0.00,0.0,meteohub,2013-06-27 02:56:00,
2013-06-26 23:01:00,72.0,66.2,29.71,SW,225,4.0,11.0,82,0.00,,,0.00,0.0,meteohub,2013-06-27 03:01:00,
2013-06-26 23:06:00,71.4,66.0,29.71,WSW,252,5.0,9.0,83,0.00,,,0.00,0.0,meteohub,2013-06-27 03:06:00,
2013-06-26 23:11:00,70.9,65.8,29.71,WSW,238,5.0,9.0,84,0.00,,,0.00,0.0,meteohub,2013-06-27 03:11:00,
2013-06-26 23:16:00,70.5,65.8,29.70,WSW,252,2.0,9.0,85,0.00,,,0.00,0.0,meteohub,2013-06-27 03:16:00,
2013-06-26 23:21:00,70.2,65.8,29.70,SW,227,2.0,8.0,86,0.00,,,0.00,0.0,meteohub,2013-06-27 03:21:00,
2013-06-26 23:26:00,70.0,66.0,29.71,SW,236,1.0,8.0,87,0.00,,,0.00,0.0,meteohub,2013-06-27 03:26:00,
2013-06-26 23:31:00,70.0,66.0,29.72,SW,221,0.0,7.0,87,0.00,,,0.00,0.0,meteohub,2013-06-27 03:31:00,
2013-06-26 23:36:00,69.6,65.8,29.71,SW,223,4.0,6.0,88,0.00,,,0.00,0.0,meteohub,2013-06-27 03:36:00,
2013-06-26 23:41:00,69.8,65.8,29.71,SW,224,0.0,4.0,87,0.00,,,0.00,0.0,meteohub,2013-06-27 03:41:00,
2013-06-26 23:46:00,69.8,65.8,29.71,SW,224,1.0,4.0,87,0.00,,,0.00,0.0,meteohub,2013-06-27 03:46:00,
2013-06-26 23:52:00,69.6,65.7,29.71,SW,224,0.0,4.0,87,0.00,,,0.00,0.0,meteohub,2013-06-27 03:52:00,
2013-06-26 23:57:00,69.6,65.7,29.71,SW,224,0.0,2.0,87,0.00,,,0.00,0.0,meteohub,2013-06-27 03:57:00,